Home   Weather   Hohenems   Past weeks

Flag for Austria Past Weather in Hohenems, Vorarlberg, Austria — Yesterday and Last 2 Weeks

Now
36 °F

Chilly.


Feels Like: 36 °F
Forecast: 32 / 59 °F
Wind: 1 mph from Northwest

Location: Bregenz

Current Time: Dec 9, 2016 at 4:47:32 pm

Latest Report: Dec 9, 2016 at 4:00 pm


Visibility: N/A

Pressure: 30.55 "Hg

Humidity: 87%

Dew Point: 33 °F

Location of HohenemsLocation

Past Weather in Hohenems — Graph

°F

Hohenems Temperature Yesterday

Maximum temperature yesterday: 36 °F (at 2:00 pm)
Minimum temperature yesterday: 27 °F (at 8:00 am)
Average temperature yesterday: 31 °F

High & Low Weather Summary for the Past Weeks

 TemperatureHumidityPressure
High50 °F (Nov 24, 3:00 pm)100% (Dec 6, 10:00 am)30.69 "Hg (Dec 6, 10:00 am)
Low24 °F (Nov 29, 7:00 am)50% (Dec 1, 1:00 pm)29.93 "Hg (Nov 25, 5:00 am)
Average35 °F85%30.34 "Hg
* Reported Nov 24 3:00 pm — Dec 9 3:00 pm, Hohenems, Weather by CustomWeather, © 2016

Note: Actual official high and low records may vary slightly from our data, if they occured in-between our weather recording intervals... More about our weather records

Advertising

Hohenems Weather History for the Previous 24 Hours

Scroll right to see more
 ConditionsComfort  
Time TempWeatherWind HumidityBarometerVisibility
3:00 pm
Fri, Dec 9
38 °FChilly.1 mph81%30.55 "HgN/A
1:00 pm36 °FChilly.1 mph83%30.58 "HgN/A
12:00 pm35 °FChilly.1 mph81%30.58 "HgN/A
11:00 am32 °FChilly.No wind89%30.61 "HgN/A
10:00 am29 °FChilly.No wind97%30.63 "HgN/A
9:00 am27 °FChilly.No wind95%30.61 "HgN/A
8:00 am26 °FChilly.No wind96%30.61 "HgN/A
7:00 am27 °FFog.No wind100%30.62 "Hg0 mi
6:00 am28 °FChilly.No wind99%30.61 "HgN/A
5:00 am28 °FChilly.1 mph97%30.61 "HgN/A
4:00 am30 °FChilly.1 mph98%30.60 "HgN/A
3:00 am29 °FChilly.1 mph98%30.61 "HgN/A
2:00 am30 °FChilly.1 mph93%30.61 "HgN/A
1:00 am30 °FChilly.1 mph94%30.62 "HgN/A
12:00 am30 °FChilly.No wind87%30.61 "HgN/A
11:00 pm
Thu, Dec 8
31 °FChilly.1 mph90%30.60 "HgN/A
10:00 pm31 °FChilly.1 mph92%30.62 "HgN/A
9:00 pm31 °FChilly.1 mph89%30.61 "HgN/A
8:00 pm30 °FChilly.No wind94%30.62 "HgN/A
7:00 pm31 °FChilly.2 mph93%30.60 "HgN/A
5:00 pm32 °FChilly.1 mph93%30.61 "HgN/A
4:00 pm35 °FChilly.1 mph89%30.58 "HgN/A
Weather by CustomWeather, © 2016

See weather overviewHow to use our weather pages